Regional Weather Roundup
Issued by NWS State College, PA

Current Version | Previous Version | Text Only | Print | Product List | Glossary On
Versions: 1 2 3 4 5 6 7 8 9 10 11 12 13 14 15 16 17 18 19 20 21 22 23 24 25 26 27 28 29 30 31 32 33 34 35 36 37 38 39 40 41 42 43 44 45 46 47 48 49 50
000
ASUS41 KCTP 072310
RWRCTP

REGIONAL WEATHER ROUNDUP
NATIONAL WEATHER SERVICE STATE COLLEGE PA
700 PM EDT TUE APR 07 2020

Note: "fair" indicates few or no clouds below 12,000 feet with no
significant weather and/or obstructions to visibility.

* = STATION THAT DOES NOT REPORT PRECIPITATION /E.G. RAIN...SNOW...ETC/
    THUNDER OR FOG.

PAZ002>004-007>009-013>016-020>023-029>032-080000-
WESTERN PENNSYLVANIA

CITY           SKY/WX    TMP DP  RH WIND       PRES   REMARKS
ERIE           CLOUDY    55  46  71 SE3       29.67F
MEADVILLE      CLOUDY    59  52  77 S5        29.68F
FRANKLIN       CLOUDY    58  53  84 S8        29.71F
NEW CASTLE     FAIR      65  55  70 SW8       29.70F
BEAVER COUNTY  FAIR      64  54  68 S7        29.72
BUTLER         FAIR      62  53  72 SW8       29.73F
PITTSBURGH INT MOCLDY    61  53  75 SW6       29.73F
PITTSBURGH     MOCLDY    59  53  80 S6        29.74F
INDIANA*       CLOUDY    59  54  82 SW7       29.78F
LATROBE        MOCLDY    59  55  88 S7        29.76F
WASHINGTON CO* CLOUDY    61  57  87 S5        29.76F
$$

PAZ004>006-010>012-017>019-024>028-033>037-041-042-045-046-049>053-080000-
CENTRAL PENNSYLVANIA

CITY           SKY/WX    TMP DP  RH WIND       PRES   REMARKS
BRADFORD       CLOUDY    50  45  83 CALM      29.73S
ST MARYS       CLOUDY    52  52 100 CALM      29.77
DUBOIS         CLOUDY    56  51  84 SW7       29.72F
CLEARFIELD     CLOUDY    58  51  78 SW6       29.73F
JOHNSTOWN      CLOUDY    55  50  83 W7        29.75F
SOMERSET       CLOUDY    52  50  93 SW6       29.78F
ALTOONA        LGT RAIN  58  51  78 W7        29.75F
STATE COLLEGE  CLOUDY    61  50  67 W5        29.73S
REEDSVILLE     MOCLDY    63  54  72 CALM      29.72
WELLSBORO      CLOUDY    54  41  62 CALM      29.72F
WILLIAMSPORT   CLOUDY    61  41  47 CALM      29.72R
SELINSGROVE    CLOUDY    64  40  41 CALM      29.72S
FT INDIANTOWN  CLOUDY    65  42  43 SW8       29.72F
CAPITAL CITY   MOCLDY    67  48  50 SW9       29.73S
HARRISBURG     MOCLDY    65  48  54 SW8       29.72F
YORK           FAIR      63  49  60 SW9       29.75S
$$

PAZ038>040-043-044-047-048-054-055-060>062-067>071-080000-
EASTERN PENNSYLVANIA

CITY           SKY/WX    TMP DP  RH WIND       PRES   REMARKS
TOWANDA        PTCLDY    59  39  47 SW9       29.74R
SCRANTON       CLOUDY    64  30  27 W9        29.73R
MOUNT POCONO   CLOUDY    57  31  37 SW7       29.73S
HAZLETON       CLOUDY    61  32  33 CALM      29.76F
LEHIGHTON      MOCLDY    64  37  36 CALM      29.72F
ALLENTOWN      FAIR      66  39  37 W8        29.73S
QN CITY/ALNTWN FAIR      64  41  42 W7        29.75R
QUAKERTOWN*    CLEAR     64  41  42 SW5       29.74S
PERKASIE*      FAIR      63  45  51 S3        29.75S
DOYLESTOWN     FAIR      64  44  48 S6        29.73F
READING        CLOUDY    66  43  43 SW5       29.72S
LANCASTER      FAIR      66  46  48 SW8       29.73S
COATESVILLE    FAIR      63  52  67 VRB5      29.76S
WEST CHESTER   FAIR      63  48  59 CALM      29.75S
POTTSTOWN      FAIR      64  43  46 SW5       29.74F
BLUE BELL      FAIR      63  49  60 S6        29.75S
NORTH PHILA    FAIR      67  47  48 S5        29.76F
PHILADELPHIA   FAIR      65  48  54 SW14      29.76S
$$




USA.gov is the U.S. government's official web portal to all federal, state and local government web resources and services.